Weather History for Sheridan, WY

Change the Weather History Date:

Wednesday, February 13, 2013

  Actual Average Record
Temperature  
Mean Temperature 32 °F 26 °F  
Max Temperature 43 °F 38 °F 68 °F (1934)
Min Temperature 20 °F 14 °F -32 °F (1936)
Degree Days  
Heating Degree Days 33 39  
Month to date heating degree days 489 517  
Since 1 July heating degree days 4684 4977  
Cooling Degree Days 0 0  
Month to date cooling degree days 0 0  
Year to date cooling degree days 0 0  
Moisture  
Dew Point 26 °F    
Average Humidity 71    
Maximum Humidity 92    
Minimum Humidity 49    
Precipitation  
Precipitation 0.13 in 0.02 in 0.56 in (1952)
Month to date precipitation 0.22 0.25  
Year to date precipitation 1.18 0.81  
Sea Level Pressure  
Sea Level Pressure 29.97 in    
Wind  
Wind Speed 11 mph (WNW)    
Max Wind Speed 33 mph    
Max Gust Speed 43 mph    
Visibility 6 miles    
Events Fog , Snow    
T = Trace of Precipitation, MM = Missing Value Source: NWS Daily Summary

Daily Weather History Graph

Daily Weather History Graph

Search for Another Location

Airport:

Trip Planner

Search our weather history database for the weather conditions in past years. The results will help you decide how hot, cold, wet, or windy it might be!

Date:

Astronomy

Feb. 13, 2013 Rise Set
Actual Time 7:10 AM MST 5:33 PM MST
Civil Twilight 6:40 AM MST 6:04 PM MST
Nautical Twilight 6:06 AM MST 6:38 PM MST
Astronomical Twilight 5:32 AM MST 7:12 PM MST
Moon 8:30 AM MST (2/13) 9:53 PM MST (2/13)
Length of Visible Light 11h 23m
Length of Day
10h 23m
Waxing Crescent, 14% of the Moon is Illuminated
Feb 13
Waxing Crescent
Feb 17
First Quarter
Feb 25
Full
Mar 4
Last Quarter
Mar 11
New

Hourly Weather History & Observations

Time (MST) Temp. Windchill Dew Point Humidity Pressure Visibility Wind Dir Wind Speed Gust Speed Precip Events Conditions
12:53 AM 25.0 °F 18.1 °F 15.1 °F 66% 29.94 in 10.0 mi SSW 5.8 mph - N/A   Clear
1:53 AM 21.0 °F - 14.0 °F 74% 29.94 in 10.0 mi Calm Calm - N/A   Clear
2:53 AM 21.9 °F 15.7 °F 14.0 °F 72% 29.93 in 10.0 mi SSW 4.6 mph - N/A   Clear
3:53 AM 25.0 °F 19.3 °F 16.0 °F 69% 29.91 in 10.0 mi NNW 4.6 mph - N/A   Overcast
4:53 AM 23.0 °F 18.4 °F 15.8 °F 74% 29.82 in 10.0 mi WNW 3.5 mph - N/A   Mostly Cloudy
5:53 AM 25.0 °F - 16.0 °F 69% 29.92 in 10.0 mi Calm Calm - N/A   Overcast
6:53 AM 30.9 °F 26.2 °F 17.1 °F 57% 29.92 in 10.0 mi South 4.6 mph - N/A   Mostly Cloudy
7:53 AM 28.9 °F 25.2 °F 17.1 °F 61% 29.93 in 10.0 mi South 3.5 mph - N/A   Mostly Cloudy
8:53 AM 34.0 °F 31.0 °F 21.0 °F 59% 29.91 in 10.0 mi East 3.5 mph - N/A   Overcast
9:53 AM 39.9 °F 30.5 °F 23.0 °F 51% 29.88 in 10.0 mi NW 19.6 mph - N/A   Mostly Cloudy
10:53 AM 42.1 °F 32.1 °F 24.1 °F 49% 29.90 in 10.0 mi NW 25.3 mph 34.5 mph N/A   Mostly Cloudy
11:53 AM 42.1 °F 32.8 °F 24.1 °F 49% 29.90 in 10.0 mi NW 21.9 mph 28.8 mph N/A   Partly Cloudy
12:53 PM 39.0 °F 30.6 °F 26.1 °F 60% 29.92 in 10.0 mi North 15.0 mph - N/A   Overcast
1:53 PM 34.0 °F 24.6 °F 30.9 °F 89% 29.99 in 9.0 mi NNW 13.8 mph - 0.00 in   Overcast
2:15 PM 33.8 °F 23.2 °F 30.2 °F 87% 29.90 in 4.0 mi NNE 17.3 mph - 0.00 in Snow Light Snow
2:22 PM 33.8 °F 23.9 °F 30.2 °F 87% 29.90 in 4.0 mi North 15.0 mph - 0.01 in Snow Light Snow
2:32 PM 33.8 °F 23.9 °F 30.2 °F 87% 29.92 in 1.8 mi NNW 15.0 mph - 0.01 in Snow Light Snow
2:39 PM 33.8 °F 23.2 °F 30.2 °F 87% 29.92 in 0.5 mi NNW 17.3 mph 26.5 mph 0.01 in Fog , Snow Snow
2:53 PM 32.0 °F 21.6 °F 30.9 °F 96% 30.05 in 0.5 mi NW 15.0 mph - 0.03 in Fog , Snow Snow
3:23 PM 32.0 °F 22.1 °F 30.2 °F 93% 29.94 in 0.2 mi NW 13.8 mph - 0.05 in Fog , Snow Heavy Snow
3:32 PM 32.0 °F 21.2 °F 30.2 °F 93% 29.93 in 0.8 mi NW 16.1 mph - 0.06 in Snow Light Snow
3:36 PM 32.0 °F 21.2 °F 30.2 °F 93% 29.94 in 2.0 mi NW 16.1 mph - 0.06 in Snow Light Snow
3:43 PM 32.0 °F 21.2 °F 30.2 °F 93% 29.94 in 2.0 mi WNW 16.1 mph - 0.06 in Snow Light Snow
3:47 PM 32.0 °F 19.8 °F 30.2 °F 93% 29.94 in 0.8 mi WNW 20.7 mph - 0.06 in Snow Light Snow
3:53 PM 32.0 °F 18.9 °F 30.0 °F 92% 30.04 in 0.2 mi WNW 24.2 mph 28.8 mph 0.07 in Fog , Snow Heavy Snow
4:01 PM 32.0 °F 20.1 °F 30.2 °F 93% 29.93 in 0.5 mi West 19.6 mph 29.9 mph 0.00 in Fog , Snow Snow
4:03 PM 32.0 °F 19.8 °F 30.2 °F 93% 29.93 in 1.0 mi WNW 20.7 mph 29.9 mph 0.00 in Snow Light Snow
4:07 PM 32.0 °F 20.1 °F 30.2 °F 93% 29.93 in 3.0 mi WNW 19.6 mph - 0.00 in Snow Light Snow
4:19 PM 33.8 °F 23.2 °F 30.2 °F 87% 29.93 in 9.0 mi WNW 17.3 mph - 0.00 in Snow Light Snow
4:33 PM 33.8 °F 20.3 °F 30.2 °F 87% 29.94 in 1.5 mi WNW 28.8 mph 33.4 mph 0.00 in Snow Light Snow
4:40 PM 33.8 °F 21.0 °F 30.2 °F 87% 29.93 in 1.0 mi West 25.3 mph - 0.00 in Snow Light Snow
4:50 PM 33.8 °F 22.2 °F 28.4 °F 81% 29.93 in 3.0 mi WNW 20.7 mph 31.1 mph 0.00 in Snow Light Snow
4:53 PM 33.1 °F 21.2 °F 28.9 °F 85% 30.05 in 7.0 mi WNW 20.7 mph - 0.00 in Snow Light Snow
5:04 PM 33.8 °F 21.0 °F 28.4 °F 81% 29.95 in 1.8 mi WNW 25.3 mph 34.5 mph 0.00 in Snow Light Snow
5:26 PM 33.8 °F 21.3 °F 28.4 °F 81% 29.95 in 3.0 mi WNW 24.2 mph - 0.00 in Snow Light Snow
5:42 PM 33.8 °F 21.9 °F 28.4 °F 81% 29.95 in 9.0 mi NW 21.9 mph - 0.00 in   Overcast
5:53 PM 33.1 °F 19.8 °F 28.9 °F 85% 30.07 in 8.0 mi NW 26.5 mph 33.4 mph 0.00 in   Overcast
6:23 PM 30.2 °F 18.9 °F 28.4 °F 93% 29.99 in 1.5 mi NW 16.1 mph - 0.00 in Snow Light Snow
6:35 PM 30.2 °F 19.3 °F 30.2 °F 100% 29.99 in 1.2 mi NW 15.0 mph - 0.02 in Snow Light Snow
6:49 PM 30.2 °F 20.2 °F 30.2 °F 100% 29.99 in 3.0 mi WNW 12.7 mph - 0.02 in Snow Light Snow
6:53 PM 30.9 °F 21.2 °F 30.0 °F 96% 30.08 in 4.0 mi WNW 12.7 mph - 0.02 in Snow Light Snow
6:57 PM 30.2 °F 20.2 °F 28.4 °F 93% 29.99 in 8.0 mi WNW 12.7 mph - 0.00 in Snow Light Snow
7:40 PM 30.2 °F 19.3 °F 28.4 °F 93% 30.00 in 1.8 mi WNW 15.0 mph - 0.00 in Snow Light Snow
7:48 PM 30.2 °F 19.8 °F 28.4 °F 93% 30.00 in 2.0 mi NW 13.8 mph - 0.00 in Snow Light Snow
7:53 PM 30.9 °F 20.7 °F 28.9 °F 92% 30.11 in 4.0 mi NW 13.8 mph - 0.00 in Snow Light Snow
8:02 PM 30.2 °F 19.3 °F 28.4 °F 93% 30.01 in 4.0 mi WNW 15.0 mph - 0.00 in Snow Light Snow
8:07 PM 30.2 °F 18.5 °F 28.4 °F 93% 30.00 in 1.8 mi WNW 17.3 mph - 0.00 in Snow Light Snow
8:21 PM 30.2 °F 19.8 °F 28.4 °F 93% 30.00 in 2.5 mi WNW 13.8 mph - 0.01 in Snow Light Snow
8:28 PM 30.2 °F 19.3 °F 28.4 °F 93% 30.00 in 4.0 mi WNW 15.0 mph - 0.01 in Snow Light Snow
8:38 PM 30.2 °F 21.3 °F 28.4 °F 93% 30.00 in 8.0 mi WNW 10.4 mph - 0.01 in Snow Light Snow
8:53 PM 30.9 °F 22.8 °F 28.0 °F 89% 30.09 in 9.0 mi West 9.2 mph - 0.01 in Snow Light Snow
9:53 PM 30.9 °F 23.5 °F 26.1 °F 82% 30.06 in 10.0 mi WNW 8.1 mph - 0.00 in   Overcast
10:53 PM 28.9 °F - 25.0 °F 85% 30.07 in 10.0 mi Calm Calm - N/A   Overcast
11:53 PM 28.0 °F 20.0 °F 24.1 °F 85% 30.09 in 10.0 mi NNW 8.1 mph - N/A   Overcast